Regional Weather Roundup
Issued by NWS

Home | Current Version | Previous Version | Text Only | Print | Product List | Glossary On
Versions: 1 2 3 4 5 6 7 8 9 10 11 12 13 14 15 16 17 18 19 20 21 22 23 24 25 26 27 28 29 30 31 32 33 34 35 36 37 38 39 40 41 42 43 44 45 46 47 48 49 50
789
ASUS44 KJAN 310310
RWRMS

MISSISSIPPI HOURLY WEATHER ROUNDUP
NATIONAL WEATHER SERVICE JACKSON MS
1000 PM CDT WED JUL 30 2014

NOTE: "FAIR: INDICATES FEW OR NO CLOUDS BELOW 12,000 FEET WITH NO
SIGNIFICANT WEATHER AND/OR OBSTRUCTIONS TO VISIBILITY.

MSZ001>002-007>008-010>013-018>021-025>028-034>036-310400-
NORTHWEST MISSISSIPPI

CITY           SKY/WX    TMP DP  RH WIND       PRES   REMARKS
CLARKSDALE     FAIR      72  72 100 W3        30.07R
CLEVELAND      FAIR      73  70  92 NW3       30.05S
GREENWOOD      CLOUDY    72  68  87 CALM      30.05S
GREENVILLE     CLOUDY    73  69  87 N6        30.04F
GRENADA        FAIR      70  64  83 CALM      30.05F
OLIVE BRANCH   CLEAR     72  68  88 CALM      30.07S
OXFORD         FAIR      70  66  88 CALM      30.08S
TUNICA         CLOUDY    73  64  73 NW6       30.07R
$$

MSZ003>006-009-014>017-022>024-029>033-037>039-310400-
NORTHEAST MISSISSIPPI

CITY           SKY/WX    TMP DP  RH WIND       PRES   REMARKS
BELMONT        FAIR      69  65  88 CALM      30.08S
COLUMBUS AFB   CLOUDY    72  65  80 CALM      30.06R
CORINTH        FAIR      72  66  83 CALM      30.07S
GOLDN TRIANGLE CLOUDY    72  61  68 N3        30.07R
STARKVILLE     FAIR      68  63  83 CALM      30.06S
TUPELO         CLOUDY    74  64  71 CALM      30.06S
$$

MSZ040-058-310400-
CENTRAL MISSISSIPPI

CITY           SKY/WX    TMP DP  RH WIND       PRES   REMARKS
JACKSON INTL   MOCLDY    76  59  55 NE5       30.04S
JACKSON HAWKNS MOCLDY    76  60  57 NE5       30.05S
MERIDIAN KEY   PTCLDY    67  59  75 NW3       30.05R
MERIDIAN NAS   MOCLDY    71  60  68 NW3       30.05S
RAYMOND        FAIR      70  64  83 CALM      30.05R
VICKSBURG      CLOUDY    73  65  75 CALM      30.04S
$$

MSZ059>079-310400-
SOUTH MISSISSIPPI

CITY           SKY/WX    TMP DP  RH WIND       PRES   REMARKS
BROOKHAVEN     FAIR      68  66  94 CALM      30.07R
COLUMBIA       FAIR      68  64  88 CALM      30.03R
HATTIESBURG    CLEAR     71  63  75 CALM      30.04S
MCCOMB         CLEAR     75  61  61 NE3       30.04S
NATCHEZ        PTCLDY    72  63  73 NE3       30.05S
PINE BELT      CLEAR     68  61  77 CALM      30.05S
$$

MSZ080>082-310400-
COASTAL MISSISSIPPI

CITY           SKY/WX    TMP DP  RH WIND       PRES   REMARKS
BILOXI         CLEAR     76  61  59 NE8       30.03R
PASCAGOULA     CLEAR     68  64  87 CALM      30.03R
GULFPORT       CLEAR     79  59  50 NE5       30.02R
$$



USA.gov is the U.S. government's official web portal to all federal, state and local government web resources and services.